Regional Weather Roundup
Issued by NWS Northern Indiana

Home | Current Version | Previous Version | Graphics & Text | Print | Product List | Glossary Off
Versions: 1 2 3 4 5 6 7 8 9 10 11 12 13 14 15 16 17 18 19 20 21 22 23 24 25 26 27 28 29 30 31 32 33 34 35 36 37 38 39 40 41 42 43 44 45 46 47 48 49 50

520
ASUS43 KIWX 241910
RWRIWX

KIWX WEATHER ROUNDUP
NATIONAL WEATHER SERVICE NORTHERN INDIANA
300 PM EDT SAT JUN 24 2017

NOTE: "FAIR" INDICATES FEW OR NO CLOUDS BELOW 12,000 FEET WITH NO
SIGNIFICANT WEATHER AND/OR OBSTRUCTIONS TO VISIBILITY.

* THESE STATIONS ARE NOT UNDER NWS QUALITY CONTROL. THEY ALSO MAY NOT
  REPORT WEATHER SUCH AS PRECIPITATION OR FOG.

INZ001>027-242000-
NORTHERN INDIANA

CITY           SKY/WX    TMP DP  RH WIND       PRES   REMARKS
GARY*          MOSUNNY   73  45  35 W16G31    30.00R
VALPARAISO     SUNNY     76  50  40 W21       29.99S
MICHIGAN CITY* SUNNY     73  52  46 NW13G21   29.99S
LAPORTE*       MOSUNNY   71  49  45 W10G23    29.99S
KNOX*          MOSUNNY   73  39  29 W13G24    29.98S
SOUTH BEND     MOSUNNY   72  53  51 NW17G26   29.97F
ELKHART*       PTSUNNY   73  52  46 W16       29.97F
GOSHEN         PTSUNNY   72  53  51 NW14      29.96F
MONTICELLO*    PTSUNNY   72  54  52 W17       30.00S
LOGANSPORT*    PTSUNNY   72  54  53 W13G23    30.01S
ROCHESTER*     MOSUNNY   77  50  38 W12G23    29.98S
WARSAW*        PTSUNNY   72  54  53 NW13      29.97S
AUBURN*        PTSUNNY   73  52  46 W10G17    29.97S
FORT WAYNE     MOSUNNY   75  57  53 W14       29.97S
HUNTINGTON*    CLOUDY    73  55  53 W8G21     29.98R
PERU/GRISSOM   MOSUNNY   74  57  54 W16G25    29.98S
MARION*        MOSUNNY   73  57  56 W18G24    30.00S

$$
INZ028>050-242000-
CENTRAL INDIANA

CITY           SKY/WX    TMP DP  RH WIND       PRES   REMARKS
LAFAYETTE      MOSUNNY   73  55  53 W16G25    30.01S
KOKOMO*        PTSUNNY   73  57  57 W21G26    30.01S
MUNCIE*        PTSUNNY   75  55  49 W18       29.99S
INDIANAPOLIS   PTSUNNY   75  55  49 W21       30.02S

$$
MIZ043>046-050>051-056>058-064>065-071>073-077>080-242000-
SOUTHWEST LOWER MICHIGAN

CITY           SKY/WX    TMP DP  RH WIND       PRES   REMARKS
BATTLE CREEK   PTSUNNY   72  54  53 W20G26    29.95S
BENTON HARBOR  SUNNY     71  54  54 W10       29.98S
COLDWATER*     MOSUNNY   73  51  45 W16G26    29.95S
HILLSDALE*     PTSUNNY   73  52  46 W13G24    29.93F
HOLLAND        MOSUNNY   70  56  61 W13       29.97S
GRAND RAPIDS   PTSUNNY   68  56  65 W21G30    29.93R
KALAMAZOO      MOSUNNY   72  51  47 W16G22    29.96F
STURGIS*       MOSUNNY   71  53  52 NW15G21   29.96S
THREE RIVERS*  FAIR      72  53  50 NW15G23   29.97S

$$
OHZ001>008-015>018-024>025-242000-
NORTHWEST OHIO

CITY           SKY/WX    TMP DP  RH WIND       PRES   REMARKS
WAUSEON*       FAIR      79  55  44 W16G23    29.92F
DEFIANCE       PTSUNNY   73  53  49 W10G16    29.94S
FINDLAY        MOSUNNY   78  52  40 W17G30    29.94S
TOLEDO EXPRESS MOSUNNY   77  54  44 SW17G24   29.91S
TOLEDO METCALF MOSUNNY   77  55  46 W14G25    29.92S
LIMA           MOSUNNY   74  56  53 W16G23    29.97R

$$
AND FOR LAKE MICHIGAN COASTAL AND OPEN LAKE BUOY OBSERVATIONS

STATION/POSITION TEMP    WIND        PRES    VSBY  WAVE
                 AIR SEA DIR/SP/G                  HT/PER
                 (F)     (DEG/KT/KT) (MB)    (MI)  (FT/S)
CALUMET HARBOR    74     250/  8/ 16 1014.8F
MICHIGAN CITY     68     260/ 14/ 16   N/A
BURNS HARBOR      69     290/ 11/ 16 1015.6S
SOUTH LAKE BUOY   63 62  280/  6/  8 1014.7          2/ 4
4 MI NW BRIDGMAN  66 69  310/  8/ 10 1015.4          3/ 5
MICHIGAN CITY     68 68  310/ 10/ 14   N/A           2/ 5

$$
&&




USA.gov is the U.S. government's official web portal to all federal, state and local government web resources and services.